ROMMA est une association bénévole à but non lucratif. Votre soutien est indispensable : ADHERER à ROMMA ou FAIRE un DON

Chambon - (38, Isère)

Oisans (2460 m)   Longitude: 06° 10' 42" E   Latitude: 45° 01' 32" N Station partenaire n°803
 

Détail journalier du     <<     >>

Température Humidité Vent Dir Rafale Dir. rafale Neige 1 Neige 2
Heure (°C) (%) (km/h) (km/h) (cm) (cm)
01:00 -1.2593ENE7ENE167202
02:00 -1.9632NE5ENE168202
03:00 -1.2573NNE8NNE167202
04:00 -1.6492NNE10NNE168202
05:00 -1.7564SO15SO167202
06:00 -1.1453SE12SSE167202
07:00 -1.1444SE15SE167202
08:00 -1.0455SE15SSE167202
09:00 -0.8468SSE25S167202
10:00 -0.35111S34SSO167202
11:00 0.25312SSO30SSO167202
12:00 0.95210S31SSO167202
13:00 1.8488S38SSO167202
14:00 1.64816SSO49SSO167202
15:00 1.05417SSO46SSO167202
16:00 0.56219SSO41SSO167202
17:00 -0.67218SSO37SSO167202
18:00 -1.67719SSO39SSO167202
19:00 -1.66716S38SSO167202
20:00 -2.17113S40SSO167202
21:00 -2.26711S36S167202
22:00 -2.46510S31S167202
23:00 -3.0747SSE26S167202
minuit -3.1757SSE26SSE167202

Graphique du 02-04-2019

 

Serveur OMMA